Tracking 19245 objects as of 17-Aug-2018
HD Live streaming from Space Station
objects crossing your sky now

FENGYUN 1C DEB

Track FENGYUN 1C DEB now!
10-day predictions


NORAD ID: 29819
Int'l Code: 1999-025DM
Perigee: 757.2 km
Apogee: 1,045.3 km
Inclination: 98.9 °
Period: 102.9 minutes
Semi major axis: 7272 km
RCS: 0.055 m2 (small)
Launch date: May 10, 1999
Source: People's Republic of China (PRC)
Launch site: Taiyaun Space Center, China (TSC)

Note: This is SATELLITE DEBRIS
aabbcc
Your satellite tracking list
Your tracking list is empty




NASA's NSSDC Master Catalog

Two Line Element Set (TLE):
1 29819U 99025DM  18229.13786853  .00000000  00000-0  25710-4 0  9996
2 29819  98.9096 282.9890 0198036 323.1849  88.2430 13.99904109591888
Source of the keplerian elements: AFSPC